Date,TemperatureHighF,TemperatureAvgF,TemperatureLowF,DewpointHighF,DewpointAvgF,DewpointLowF,HumidityHigh,HumidityAvg,HumidityLow,PressureMaxIn,PressureMinIn,WindSpeedMaxMPH,WindSpeedAvgMPH,GustSpeedMaxMPH,PrecipitationSumIn
2013-2-1,32,18,3,-100,-100,-100,0,0,100,0.00,40.00,0,-999,0,0.00
2013-2-2,39,32,28,-100,-100,-100,0,0,100,0.00,40.00,0,-999,0,0.00
2013-2-3,46,38,24,-100,-100,-100,0,0,100,0.00,40.00,0,-999,0,0.00
2013-2-4,40,30,25,-100,-100,-100,0,0,100,0.00,40.00,0,-999,0,0.00
2013-2-5,52,39,29,-100,-100,-100,0,0,100,0.00,40.00,0,-999,0,0.00
2013-2-6,40,38,35,-100,-100,-100,0,0,100,0.00,40.00,0,-999,0,0.00
2013-2-7,45,35,32,-100,-100,-100,0,0,100,0.00,40.00,0,-999,0,0.00
2013-2-8,35,31,28,-100,-100,-100,0,0,100,0.00,40.00,0,-999,0,0.00
2013-2-9,51,38,29,-100,-100,-100,0,0,100,0.00,40.00,0,-999,0,0.00
2013-2-10,46,38,32,-100,-100,-100,0,0,100,0.00,40.00,0,-999,0,0.00
2013-2-11,36,32,26,-100,-100,-100,0,0,100,0.00,40.00,0,-999,0,0.00
2013-2-12,52,34,25,-100,-100,-100,0,0,100,0.00,40.00,0,-999,0,0.00
2013-2-13,58,41,29,-100,-100,-100,0,0,100,0.00,40.00,0,-999,0,0.00
2013-2-14,45,38,23,-100,-100,-100,0,0,100,0.00,40.00,0,-999,0,0.00
2013-2-15,35,24,16,-100,-100,-100,0,0,100,0.00,40.00,0,-999,0,0.00
2013-2-16,42,27,16,-100,-100,-100,0,0,100,0.00,40.00,0,-999,0,0.00
2013-2-17,54,39,27,-100,-100,-100,0,0,100,0.00,40.00,0,-999,0,0.00
2013-2-18,45,34,23,-100,-100,-100,0,0,100,0.00,40.00,0,-999,0,0.00
2013-2-19,27,19,10,-100,-100,-100,0,0,100,0.00,40.00,0,-999,0,0.00
2013-2-20,26,17,7,-100,-100,-100,0,0,100,0.00,40.00,0,-999,0,0.00
2013-2-21,25,23,21,-100,-100,-100,0,0,100,0.00,40.00,0,-999,0,0.00
2013-2-22,27,20,10,-100,-100,-100,0,0,100,0.00,40.00,0,-999,0,0.00
2013-2-23,40,21,3,-100,-100,-100,0,0,100,0.00,40.00,0,-999,0,0.00
2013-2-24,39,31,23,-100,-100,-100,0,0,100,0.00,40.00,0,-999,0,0.00
2013-2-25,35,29,25,-100,-100,-100,0,0,100,0.00,40.00,0,-999,0,0.00
2013-2-26,32,26,25,-100,-100,-100,0,0,100,0.00,40.00,0,-999,0,0.00
2013-2-27,36,30,25,-100,-100,-100,0,0,100,0.00,40.00,0,-999,0,0.00
2013-2-28,33,30,28,-100,-100,-100,0,0,100,0.00,40.00,0,-999,0,0.00